Location: Trebic
(49.2170°N, 15.8830°E)
Time: 18:30:30
(UTC+02:00)

Courier 1B Rocket - Pass Details

Date: 25 August 2019
Orbit: 920 x 1202 km, 28.2° (Epoch: 15 September)

Event Time Altitude Azimuth Distance (km) Brightness Sun altitude
Rises 05:11:34 0° 233° (SW) 3,939 - -8.4°
Exits shadow 05:14:13 - 220° (SW) 3,326 7.2 -8.0°
Reaches altitude 10° 05:15:53 10° 210° (SSW) 3,035 7.1 -7.8°
Maximum altitude 05:19:29 14° 181° (S) 2,769 7.1 -7.3°
Drops below altitude 10° 05:23:10 10° 152° (SSE) 3,101 7.7 -6.7°
Sets 05:27:40 0° 129° (SE) 4,087 8.6 -6.1°
